Regional Weather Roundup
Issued by NWS Newport/Morehead, NC

Current Version | Previous Version | Text Only | Print | Product List | Glossary On
Versions: 1 2 3 4 5 6 7 8 9 10 11 12 13 14 15 16 17 18 19 20 21 22 23 24 25 26 27 28 29 30 31 32 33 34 35 36 37 38 39 40 41 42 43 44 45 46 47 48 49 50
281
ASUS42 KMHX 250125
RWRMHX
WEATHER ROUNDUP FOR EASTERN NORTH CAROLINA
NATIONAL WEATHER SERVICE NEWPORT/MOREHEAD CITY NC
900 PM EDT THU MAY 24 2018

NOTE: "FAIR" INDICATES FEW OR NO CLOUDS BELOW 12,000 FEET
WITH NO SIGNIFICANT WEATHER AND/OR OBSTRUCTIONS TO VISIBILITY

NCZ015>017-031-032-045>047-102-103-250200-
NORTH COAST

CITY           SKY/WX    TMP DP  RH WIND       PRES   REMARKS
EDENTON        FAIR      69  61  75 CALM      30.17R
ELIZABETH CITY FAIR      71  63  75 SE3       30.16R
KITTY HAWK     FAIR      67  65  94 CALM      30.16R
MANTEO         FAIR      67  63  86 CALM      30.17S

$$

NCZ045>047-081-094-103-104-250200-
CENTRAL COAST

CITY           SKY/WX    TMP DP  RH WIND       PRES   REMARKS
FRISCO         FAIR      69  61  75 NE5       30.16R

$$

NCZ095-097-098-100-101-250200-
SOUTHERN COAST

CITY           SKY/WX    TMP DP  RH WIND       PRES   REMARKS
BEAUFORT       FAIR      72  62  71 E3        30.15R
CEDAR ISLAND   NOT AVBL
JACKSONVILLE   FAIR      73  65  75 S6        30.14R
PINEY ISLAND   NOT AVBL
WILMINGTON     CLOUDY    73  67  81 E5        30.14R


$$

NCZ011>013-027>030-043-044-078>080-089-090>093-098-250200-
COASTAL PLAIN

CITY           SKY/WX    TMP DP  RH WIND       PRES   REMARKS
AHOSKIE        FAIR      68  60  73 CALM      30.17R
CLINTON        FAIR      72  70  92 CALM      30.16R
ELIZABETHTOWN  CLOUDY    72  68  86 CALM      30.15R
GOLDSBORO      FAIR      75  65  70 SE3       30.14R
GREENVILLE     FAIR      75  63  64 SE5       30.17R
HAVELOCK       PTCLDY    71  83 100 E5        30.16R
KENANSVILLE    FAIR      72  66  83 S3        30.16R
KINSTON        CLEAR     75  61  60 SE3       30.16R
NEW BERN       FAIR      71  62  73 E5        30.16R
RICHLANDS      FAIR      71  64  78 S5        30.16R
ROCKY MOUNT    FAIR      71  61  70 CALM      30.15R
WASHINGTON     FAIR      69  61  75 CALM      30.17R
WHITEVILLE     MOCLDY    72  70  96 CALM      30.15R

$$

AMZ130-135-150-152-154-156-158-170-250-252-270-ANZ085-086-088-633-658-670-250200-
MARINE OBSERVATIONS

STATION/POSITION TIME  TEMP    WIND        PRES    WAVE   SWELL
                       AIR SEA DIR/SP/G            HT/PER HT/PER
                 (UTC) (F)     (DEG/KT/KT) (MB)    (FT/S) (FT/S)
CHESAPEAKE LIGHT NOT AVBL
64 E VA BEACH    0050   65 68   70/  4/  6 1021.9    2/ 8   2/ 8
DUCK             0100   70 72  110/  6/  6 1021.2
2 E DUCK         0100      72                N/A     1/ 8
OREGON INLET     0100   69 77   40/  4/  5 1021.3
13E OREGON INLT  0048      69                N/A     2/ 8   2/ 8
HATTERAS CG      0100   72 77   80/  4/  5 1020.9
DIAMOND BUOY     0110   75 78   30/ 10/ 12 1021.1
CAPE LOOKOUT     0100           60/ 10/ 11 1021.0
BEAUFORT LAB     0100   73 78   60/  4/  6 1021.1
30 SE NEW RVR IN 0108   76     100/  8/ 12 1020.6
30 SE NEW RVR IN 0100      76                N/A     3/ 8
27 SE WRIGHTSVLE 0108   75 75  100/ 10/ 16 1020.4
5 SE WRIGHTSVLE  0108   73 74  120/  8/ 12 1020.0
225 S CAPE HAT   0110      79  100/  4/  6 1019.7
41 SE CHARLESTON 0100      76  110/  6/  8 1019.4

$$




USA.gov is the U.S. government's official web portal to all federal, state and local government web resources and services.